sat.trackr.live / text

‹ back to catalog

ONEWEB-0513

NORAD 54131 · 2022-138U

PAYLOAD ACTIVE UNKNOWN

§ Identity

Operator
Country
UK
Launch date
2022-10-22
Launch site
SRILR
Launch vehicle
Mass (kg)
RCS (m²)

Purposes: comms

External: N2YO · Heavens-Above · Gunter

§ Orbital elements

Epoch: 2026-05-25T04:46:57.148320Z

Period
109.07 min
Inclination
87.9157°
Eccentricity
0.0002121
Mean motion
13.20266933 rev/d
Perigee alt
1,182.1 km
Apogee alt
1,185.3 km
Semi-major
7,561.8 km
B*
-1.5477e-5
RAAN
309.5026°
Arg perigee
67.0339°
Mean anomaly
293.1018°
Rev number
17,368

§ Raw data

ONEWEB-05131 54131U 22138U   26145.19927255  .00000007  00000+0 -15477-4 0  99932 54131  87.9157 309.5026 0002121  67.0339 293.1018 13.20266933173686

JSON: /api/v1/satellites/54131 · /tle

For live sub-satellite position, see the globe view (requires WebGL).

§ Visibility from observer

Set your observer location to see the next 7 days of passes ≥ 10°. The values pass through the URL so the page stays shareable.

No JS? Fill the form by hand. The geolocation button needs JavaScript.